Weather History for Ottawa International, ON

Change the Weather History Date:

Saturday, October 13, 2012

  Actual Average Record
Temperature  
Mean Temperature 37 °F -  
Max Temperature 51 °F 48 °F 71 °F (2008)
Min Temperature 23 °F 33 °F 23 °F (2012)
Degree Days  
Heating Degree Days 28    
Moisture  
Dew Point 27 °F    
Average Humidity 69    
Maximum Humidity 93    
Minimum Humidity 25    
Precipitation  
Precipitation 0.39 in 0.10 in - ()
Sea Level Pressure  
Sea Level Pressure 30.33 in    
Wind  
Wind Speed 5 mph ()    
Max Wind Speed 14 mph    
Max Gust Speed 22 mph    
Visibility 14.1 miles    
Events Rain    
Averages and records for this station are not official NWS values.
T = Trace of Precipitation, MM = Missing Value Source: Averaged Metar Reports

Daily Weather History Graph

Daily Weather History Graph

Search for Another Location

Airport:

Trip Planner

Search our weather history database for the weather conditions in past years. The results will help you decide how hot, cold, wet, or windy it might be!

Date:

Astronomy

Oct. 13, 2012 Rise Set
Actual Time 7:16 AM EDT 6:20 PM EDT
Civil Twilight 6:47 AM EDT 6:49 PM EDT
Nautical Twilight 6:12 AM EDT 7:23 PM EDT
Astronomical Twilight 5:38 AM EDT 7:58 PM EDT
Moon 4:59 AM EDT (10/13) 5:05 PM EDT (10/13)
Length of Visible Light 12h 02m
Length of Day
11h 03m
Waning Crescent, 5% of the Moon is Illuminated
Oct 13
Waning Crescent
Oct 15
New
Oct 21
First Quarter
Oct 29
Full
Nov 6
Last Quarter

Hourly Weather History & Observations

Time (EDT) Temp. Windchill Dew Point Humidity Pressure Visibility Wind Dir Wind Speed Gust Speed Precip Events Conditions
12:00 AM 26.6 °F 22.6 °F 23.0 °F 86% 30.42 in 15.0 mi SSW 3.5 mph - N/A   Partly Cloudy
1:00 AM 26.6 °F 21.2 °F 23.0 °F 86% 30.42 in 15.0 mi SW 4.6 mph - N/A   Partly Cloudy
2:00 AM 23 °F - 20 °F 84% 30.42 in 15 mi SSW 3.5 mph - -   Scattered Clouds
2:00 AM 23.0 °F 18.4 °F 19.4 °F 86% 30.42 in 15.0 mi SSW 3.5 mph - N/A   Partly Cloudy
3:00 AM 24.8 °F 20.5 °F 21.2 °F 86% 30.41 in 15.0 mi SSW 3.5 mph - N/A   Scattered Clouds
4:00 AM 24.8 °F 20.5 °F 23.0 °F 93% 30.40 in 15.0 mi SSE 3.5 mph - N/A   Partly Cloudy
5:00 AM 26.6 °F - 23.0 °F 86% 30.42 in 15.0 mi Calm Calm - N/A   Partly Cloudy
6:00 AM 26.6 °F 20.0 °F 23.0 °F 86% 30.41 in 15.0 mi South 5.8 mph - N/A   Scattered Clouds
7:00 AM 28.4 °F 23.3 °F 24.8 °F 86% 30.41 in 15.0 mi South 4.6 mph - N/A   Mostly Cloudy
8:00 AM 28 °F - 25 °F 85% 30.41 in 15 mi SSW 4.6 mph - -   Partly Cloudy
8:00 AM 28.4 °F 23.3 °F 24.8 °F 86% 30.41 in 15.0 mi South 4.6 mph - N/A   Scattered Clouds
9:00 AM 33.8 °F 28.6 °F 28.4 °F 81% 30.41 in 15.0 mi SSW 5.8 mph - N/A   Scattered Clouds
10:00 AM 41.0 °F 35.2 °F 30.2 °F 65% 30.42 in 15.0 mi WSW 9.2 mph - N/A   Scattered Clouds
11:00 AM 46.4 °F 40.7 °F 30.2 °F 53% 30.41 in 15.0 mi WSW 12.7 mph - N/A   Scattered Clouds
12:00 PM 50.0 °F - 26.6 °F 40% 30.38 in 15.0 mi WSW 13.8 mph - N/A   Scattered Clouds
1:00 PM 51.8 °F - 26.6 °F 38% 30.35 in 15.0 mi SW 10.4 mph - N/A   Mostly Cloudy
2:00 PM 49 °F - 24 °F 25% 30.32 in 15 mi SSW 11.5 mph - -   Partly Cloudy
2:00 PM 48.2 °F - 24.8 °F 40% 30.32 in 15.0 mi SSW 9.2 mph 20.7 mph N/A   Mostly Cloudy
3:00 PM 48.2 °F - 24.8 °F 40% 30.30 in 15.0 mi SW 9.2 mph - N/A   Mostly Cloudy
4:00 PM 48.2 °F - 24.8 °F 40% 30.29 in 15.0 mi SSW 9.2 mph - N/A   Overcast
5:00 PM 46.4 °F 45.2 °F 24.8 °F 43% 30.28 in 15.0 mi South 3.5 mph - N/A   Overcast
6:00 PM 46.4 °F 41.9 °F 32.0 °F 57% 30.24 in 15.0 mi South 9.2 mph - N/A   Overcast
7:00 PM 44.6 °F 40.7 °F 32.0 °F 61% 30.22 in 15.0 mi SSE 6.9 mph - N/A   Overcast
7:18 PM 44.6 °F 41.4 °F 33.8 °F 66% 30.22 in 15.0 mi South 5.8 mph - N/A Rain Light Rain
7:33 PM 42.8 °F 37.5 °F 32.0 °F 66% 30.22 in 10.0 mi South 9.2 mph 21.9 mph N/A Rain Light Rain
8:00 PM 41.0 °F 35.8 °F 33.8 °F 76% 30.21 in 10.0 mi SSW 8.1 mph - N/A Rain Light Rain
9:00 PM 39.2 °F 37.0 °F 35.6 °F 87% 30.19 in 10.0 mi East 3.5 mph - N/A Rain Light Rain
10:00 PM 39.2 °F 33.6 °F 35.6 °F 87% 30.17 in 10.0 mi SE 8.1 mph - N/A Rain Light Rain
11:00 PM 39.2 °F 33.0 °F 37.4 °F 93% 30.14 in 8.0 mi SE 9.2 mph - N/A Rain Light Rain